Theta_e
320 320 320 319 316 314 315 314 313 314 315 313 313 313 314 314 314 314 314 315 316 315 318 332 332 331 332 329 326 328 333 335 336 336 336 333 336 332 339 353 352 354 353 352
321 322 319 318 317 314 314 315 314 315 316 314 314 314 315 314 314 314 314 314 314 316 318 331 332 333 330 325 327 331 336 338 338 342 338 336 336 335 336 349 351 354 353 351
321 321 320 317 316 315 314 314 315 315 317 319 318 317 318 317 316 315 314 314 314 315 316 320 333 331 330 328 328 331 336 344 343 338 336 334 331 332 326 346 353 352 347 347
320 320 319 315 315 314 314 315 316 316 316 317 318 317 318 319 317 317 315 313 314 315 316 320 330 329 331 329 330 328 325 328 342 346 340 335 339 346 347 349 350 348 349 346
320 321 320 315 314 314 315 316 315 316 315 318 317 316 316 319 321 321 325 323 322 314 315 321 331 331 330 330 331 327 330 338 338 336 344 349 348 346 347 348 345 342 348 331
320 318 317 316 315 315 315 315 315 314 314 316 316 317 316 317 319 326 328 322 324 322 325 326 329 330 327 329 331 336 339 340 342 350 352 349 347 344 341 347 347 348 347 349
320 319 317 316 314 315 314 314 315 316 316 317 317 318 317 325 328 329 329 324 323 323 324 324 325 326 329 331 335 330 335 346 345 342 341 336 336 337 334 333 333 334 335 335
322 320 317 317 315 315 314 314 314 318 320 319 320 320 318 328 328 328 326 326 327 323 323 323 327 328 329 330 333 334 332 329 328 327 327 325 325 325 325 324 324 324 324 325
321 320 318 317 315 315 315 315 314 316 323 323 322 329 328 326 326 325 327 327 327 328 329 329 327 327 327 326 325 325 324 323 324 323 321 320 320 321 321 321 321 321 321 320
326 327 321 317 315 314 315 315 315 315 325 325 322 328 332 328 326 325 327 327 326 325 325 325 325 325 326 326 324 324 323 321 319 319 319 318 317 317 317 316 317 317 317 316
327 326 327 325 323 315 315 315 316 321 325 324 327 336 331 334 333 328 328 327 323 321 321 321 321 322 321 321 321 320 320 317 316 316 316 316 316 316 315 316 316 316 316 315
325 326 327 326 324 322 316 316 321 326 330 332 328 331 328 329 327 327 331 328 321 319 318 318 317 319 318 317 317 316 315 314 314 313 314 313 314 314 314 314 314 314 314 315
325 328 329 328 326 324 317 318 320 327 328 332 332 331 328 328 327 327 328 326 322 319 316 315 314 313 315 315 315 313 312 312 312 312 312 313 312 312 312 313 314 314 312 311
325 327 328 327 327 323 319 319 323 324 329 331 331 332 331 328 329 328 327 328 321 320 318 316 314 312 314 314 313 312 311 311 310 311 311 311 311 311 313 312 310 309 308 308
325 330 328 328 329 328 323 319 327 327 326 328 329 331 328 325 327 327 327 323 320 319 317 316 314 312 312 312 311 311 310 309 309 309 310 310 311 311 309 308 307 306 306 305
326 329 325 329 327 328 328 326 328 328 328 328 323 329 325 324 324 326 327 321 319 318 316 315 313 312 311 310 310 309 309 308 308 308 309 310 309 308 307 306 306 305 304 303
325 330 327 327 327 327 330 329 329 327 329 327 331 329 325 326 323 322 323 320 316 314 313 311 310 309 309 308 308 307 306 306 306 307 307 307 305 305 305 306 305 304 304 304
329 328 323 328 329 334 327 326 328 327 327 328 328 325 321 318 315 315 314 313 311 310 308 307 306 307 307 304 303 303 304 304 304 305 304 303 303 304 305 304 304 304 304 304
323 328 329 329 328 327 327 326 326 324 325 324 321 318 316 315 313 312 311 309 308 306 304 304 304 304 302 301 301 301 301 301 302 301 301 301 302 303 303 303 304 304 304 304
323 323 326 325 327 330 325 324 322 321 324 319 318 319 317 317 315 311 307 306 304 303 301 301 301 299 299 298 298 299 299 299 298 298 299 300 301 302 303 303 303 303 304 305
320 323 327 326 326 326 323 323 322 324 324 316 314 313 313 312 309 306 304 302 301 299 298 298 297 297 296 295 296 296 296 296 295 297 298 300 301 302 302 302 303 304 305 305
321 324 326 324 324 327 323 322 323 318 313 312 309 307 306 305 305 302 300 299 298 297 296 296 295 295 294 292 293 293 294 294 295 296 298 300 300 300 301 303 304 305 304 304
327 325 325 324 324 318 316 316 313 310 308 308 306 305 304 303 301 299 298 296 296 295 294 294 293 292 292 291 291 292 293 292 293 294 296 298 298 299 300 302 304 304 305 305
323 320 322 321 317 314 312 310 308 307 306 305 304 303 301 300 299 297 296 295 294 293 292 292 291 290 290 290 291 292 291 290 291 292 293 296 296 297 299 301 303 304 305 305
321 319 318 317 313 311 310 308 306 305 304 304 303 301 300 298 297 295 294 293 292 291 291 290 290 290 290 289 290 290 291 290 290 291 292 293 293 295 297 299 303 304 306 307
318 317 317 317 313 311 309 307 306 305 304 303 301 300 299 297 295 294 293 292 291 291 290 290 289 289 289 290 290 291 291 292 291 291 291 292 292 294 296 298 301 303 304 307
Wind_Speed
23 12 15 18 16 13 15 16 13 18 15 11 15 9 10 12 10 10 9 9 8 11 9 25 32 31 27 26 23 22 22 21 23 25 29 37 13 10 36 18 26 28 33 28
11 23 18 16 19 18 19 19 18 11 18 12 10 10 10 11 10 15 14 12 10 7 5 12 19 26 31 31 25 23 24 26 28 30 30 22 19 17 16 42 28 23 26 26
24 14 20 20 19 21 20 19 16 10 8 4 5 4 5 7 8 9 10 10 11 10 10 8 15 25 30 30 25 27 31 31 29 28 27 29 25 21 20 44 28 12 21 23
22 19 22 24 22 20 19 20 20 13 6 4 3 6 8 7 12 8 11 10 11 10 9 7 12 15 23 28 25 24 20 22 28 25 30 36 36 27 23 12 16 20 20 20
23 22 26 23 24 21 17 15 16 10 6 2 8 1 7 5 5 3 6 8 9 9 8 6 16 29 38 35 32 28 23 18 13 10 10 8 11 5 2 3 9 10 14 12
26 17 20 23 21 23 19 8 7 9 4 5 6 6 7 7 7 5 4 6 9 9 8 8 7 28 16 11 25 22 17 15 13 13 9 7 3 6 5 11 12 15 13 12
19 27 21 20 19 21 12 6 2 2 4 5 11 10 11 5 7 7 8 8 6 10 9 9 12 12 20 16 10 7 11 17 15 18 18 16 15 15 16 19 22 17 11 8
15 15 24 20 20 8 10 9 5 8 5 10 13 9 7 8 8 7 6 5 6 9 9 11 14 17 24 27 32 29 28 27 26 26 22 22 21 22 20 19 18 18 16 13
12 19 13 20 16 10 9 10 8 3 2 2 3 5 7 8 8 8 8 8 10 12 15 16 14 19 23 31 33 33 28 25 26 23 25 23 22 21 20 17 16 16 14 10
6 5 15 15 12 14 14 9 9 3 6 5 0 5 1 5 7 15 6 12 13 15 15 15 13 17 21 24 23 22 16 19 19 20 18 19 19 18 17 16 17 16 15 14
5 3 5 7 4 11 7 10 6 4 4 6 4 3 9 4 7 12 15 11 12 11 8 8 10 17 22 24 21 20 15 14 16 17 15 16 16 16 16 16 15 15 16 18
5 4 4 4 14 15 9 8 7 5 1 3 4 2 5 3 11 18 9 8 7 9 9 7 7 15 18 22 21 21 19 18 18 17 16 15 13 13 13 13 13 14 15 13
7 5 5 9 10 15 9 8 6 8 4 6 5 1 3 8 8 17 14 1 2 10 9 8 9 9 17 19 21 22 20 19 17 16 15 15 13 12 10 9 9 8 10 13
8 4 6 7 2 2 13 10 11 8 4 4 4 9 8 9 11 4 4 3 5 14 12 10 10 8 19 23 23 22 22 21 19 17 16 13 10 9 8 8 10 13 15 17
5 6 6 3 9 7 3 7 10 6 6 5 12 17 12 10 17 8 8 2 15 15 13 11 10 8 18 22 22 20 19 19 17 14 12 12 10 10 11 13 14 15 15 16
8 6 3 3 6 5 3 8 8 11 2 8 10 11 10 14 17 13 9 11 16 15 14 14 13 14 15 18 17 16 16 17 15 15 14 12 14 13 13 14 15 14 17 23
11 5 4 2 5 7 4 3 7 14 13 11 13 9 14 16 14 14 11 11 15 14 14 14 12 12 17 18 19 20 20 19 18 18 16 16 16 16 16 16 16 19 23 22
6 8 3 8 16 5 1 9 9 11 14 16 17 21 21 21 19 18 15 13 13 14 14 12 12 16 19 22 22 20 19 19 18 17 17 18 18 17 17 19 19 19 21 24
5 6 4 5 2 8 13 15 18 16 15 11 25 24 23 20 20 15 13 14 14 13 12 14 17 19 21 22 19 17 16 16 15 17 17 18 18 16 19 20 20 23 25 28
9 6 7 9 5 3 4 17 17 12 12 12 17 15 20 13 11 7 13 14 13 20 20 19 20 20 22 20 18 17 17 15 16 17 17 17 14 15 18 21 21 24 26 24
5 3 4 5 5 2 6 11 10 8 5 13 15 16 17 16 9 10 14 15 20 19 20 21 21 19 19 19 17 16 15 14 17 18 18 16 16 17 16 18 21 23 22 21
3 4 1 1 5 1 7 9 7 8 15 17 17 16 18 14 15 15 14 13 15 16 18 18 16 16 18 20 18 15 13 17 17 17 17 16 16 18 17 20 22 20 20 20
3 3 3 4 7 13 21 18 17 18 18 17 17 15 15 15 14 13 12 11 13 16 16 17 16 16 17 18 16 14 17 18 19 18 18 17 17 17 20 20 18 19 21 19
7 9 8 8 14 18 19 20 19 19 18 17 16 15 15 14 13 11 10 9 12 15 15 16 15 14 14 16 15 14 16 17 17 17 17 17 16 18 16 20 19 18 20 20
3 5 14 19 18 19 17 17 18 18 17 18 17 16 15 14 12 10 9 10 13 14 14 14 13 13 14 16 15 15 14 14 15 14 15 16 17 17 20 25 18 21 24 22
5 10 9 7 7 15 14 12 14 16 15 17 17 16 16 14 12 12 9 12 12 11 12 12 14 16 17 19 19 18 18 14 17 13 14 15 17 19 20 22 23 23 23 19
Wind_Direction
209 211 215 209 224 232 244 245 226 230 239 201 230 223 212 213 221 235 244 245 267 237 210 181 172 166 147 150 151 155 167 176 181 181 210 223 179 295 300 241 217 213 206 208
191 219 213 219 223 227 240 247 253 261 227 205 207 225 223 224 211 210 219 234 238 257 210 177 173 165 162 159 155 157 169 177 191 196 204 211 200 225 229 264 218 212 206 207
205 205 208 219 221 221 228 242 252 247 289 191 178 267 257 259 218 216 207 204 225 216 235 189 176 176 171 163 161 158 158 166 179 192 184 191 198 173 292 246 235 203 205 210
223 225 203 215 225 213 226 226 242 258 266 228 164 241 251 238 242 245 240 210 215 229 221 205 159 175 175 180 178 184 159 149 168 166 171 190 196 183 182 189 189 186 187 211
222 199 223 212 219 226 228 215 214 244 261 204 290 93 256 260 186 175 39 63 13 261 216 175 174 179 196 194 176 167 150 143 143 156 178 184 178 221 332 65 191 209 203 213
224 222 217 227 213 223 232 219 183 201 203 245 227 234 261 242 215 116 78 76 67 71 60 73 72 194 197 139 155 141 136 135 141 150 146 143 134 134 62 94 125 170 186 202
224 226 232 225 219 209 209 132 220 227 211 216 223 226 228 178 134 143 140 129 114 100 86 73 66 62 57 63 76 189 149 106 102 99 102 97 106 98 96 84 84 94 88 91
229 228 217 224 225 180 206 166 159 180 173 228 232 248 272 106 83 91 98 82 32 93 105 85 73 80 72 68 67 60 59 81 86 82 78 74 73 73 66 66 71 71 64 50
214 247 226 227 208 177 192 201 190 160 220 103 193 144 66 89 92 85 71 25 71 67 72 82 75 66 84 82 74 72 59 62 63 70 63 54 57 59 56 47 47 52 50 22
312 300 231 218 193 225 186 162 210 201 181 221 277 78 245 40 7 36 59 82 62 55 62 69 74 79 83 91 90 88 68 81 67 62 59 52 40 36 33 24 17 9 357 352
279 134 306 333 252 193 188 192 189 130 125 170 128 126 359 41 73 54 25 11 90 79 66 75 90 93 94 94 96 98 105 74 73 68 63 60 51 36 27 21 9 0 350 346
190 148 242 287 293 300 193 180 145 125 247 70 103 91 334 49 118 88 41 342 100 116 121 117 96 93 92 91 87 94 80 70 54 57 62 55 43 32 23 6 359 351 345 345
200 168 113 315 294 268 196 189 146 106 96 167 124 212 66 95 101 133 163 203 178 122 109 94 92 86 77 78 76 70 61 54 44 35 37 45 36 16 9 355 0 16 358 344
327 162 144 190 153 230 195 181 148 124 118 142 152 151 161 115 108 117 351 326 233 99 88 82 67 64 65 59 59 52 50 45 35 26 21 19 14 12 25 37 6 351 342 340
237 172 206 192 22 344 27 176 123 119 147 142 165 156 173 158 118 83 32 210 114 104 93 85 79 71 61 51 43 36 38 32 26 16 1 1 12 49 20 3 356 346 347 342
217 165 81 116 39 346 356 14 135 123 66 6 151 128 158 132 122 134 144 84 79 77 71 69 67 61 52 47 36 32 34 26 14 3 0 24 21 18 15 360 353 350 342 337
189 132 124 207 122 338 313 78 9 90 111 196 99 111 137 115 99 94 120 107 85 73 70 67 64 57 44 34 40 36 28 20 12 6 13 22 23 14 5 355 351 345 340 336
230 133 151 136 156 154 217 86 56 65 114 108 104 102 101 101 92 78 73 74 66 65 65 56 47 43 49 41 34 26 20 14 7 6 14 14 7 357 348 349 345 333 332 330
45 90 103 101 73 125 120 147 112 98 53 86 116 111 105 97 85 70 76 66 69 65 63 53 44 56 46 34 24 19 15 7 5 13 4 357 349 346 344 338 332 333 331 329
78 79 111 154 111 99 41 140 127 93 67 50 79 111 126 102 85 73 71 70 62 58 48 38 38 40 31 29 24 17 10 13 9 356 345 338 335 336 334 331 330 329 333 318
26 24 75 57 97 8 339 88 173 69 147 94 83 81 84 81 89 90 71 59 56 49 43 32 30 29 39 27 19 12 3 6 345 338 335 334 337 340 331 328 330 331 325 320
94 77 80 197 91 77 330 30 89 123 81 81 77 76 79 77 69 64 58 54 48 40 33 28 24 25 23 19 11 360 354 339 338 335 335 339 345 339 331 329 328 330 331 331
84 125 148 77 92 81 75 93 90 89 84 79 84 76 77 76 69 61 54 45 41 36 29 27 27 18 11 7 1 352 348 354 350 348 348 348 346 335 334 333 333 333 341 333
58 54 99 85 80 84 85 85 86 87 89 88 86 86 81 78 71 67 59 49 41 36 30 28 21 15 7 1 3 3 354 352 350 345 344 344 343 332 336 338 329 333 334 330
51 97 102 99 99 88 88 94 98 95 92 89 85 83 86 88 78 73 62 50 45 40 35 29 22 14 8 7 4 2 351 346 353 348 345 345 338 337 337 336 327 338 340 336
78 116 118 125 108 113 109 104 100 99 101 97 92 86 82 83 88 80 68 59 52 42 33 32 29 26 18 12 6 358 356 360 358 353 348 344 338 340 339 339 336 352 343 342